Printer-friendly version

IAU Minor Planet Center

Minor Planet Center

MPEC 2002-F59 : 2002 CE

The following Minor Planet Electronic Circular may be linked-to from your own Web pages, but must not otherwise be redistributed electronically.


Read MPEC 2002-F58 Read MPEC 2002-F60


M.P.E.C. 2002-F59                                Issued 2002 Mar. 26, 18:33 UT

     The Minor Planet Electronic Circulars contain information on unusual
         minor planets and routine data on comets.  They are published
   on behalf of Commission 20 of the International Astronomical Union by the
          Minor Planet Center, Smithsonian Astrophysical Observatory,
                          Cambridge, MA 02138, U.S.A.

             Prepared using the Tamkin Foundation Computer Network

                              MPC@CFA.HARVARD.EDU
          URL http://cfa-www.harvard.edu/iau/mpc.html  ISSN 1523-6714

                                    2002 CE

                           Revision to MPEC 2002-C16

Observations:
     K02C00E 2 1982 05 25.41464 12 33 40.62 -14 38 43.3                      260
     K02C00E 2 1982 05 25.45283 12 33 39.00 -14 38 43.7                      260

Observer details:
260 Siding Spring-DSS.  Trail located and measured by ANEOPP (G. Forti,
    A. Boattini, G. D'Abramo).  1.2-m Schmidt.

Orbital elements:
2002 CE                                                              PHA 0.024A
Epoch 2002 May 6.0 TT = JDT 2452400.5                   MPC
M  74.07041              (2000.0)            P               Q
n   0.32935001     Peri.    5.54933     +0.91143335     -0.33674587
a   2.0766546      Node    19.99441     +0.34588227     +0.31589608
e   0.5078490      Incl.   43.74206     +0.22283334     +0.88702417
P   2.99           H   14.6           G   0.15           U   4
Residuals in seconds of arc
820525 260  0.1-  0.4+    020202 198  0.1-  0.1-    020221 649  0.1+  0.2-
820525 260  0.2+  0.4-    020202 636  0.1-  0.2-    020225 704  0.6+  0.0
020201 704  0.0   0.6-    020202 198  0.0   0.2-    020225 704  0.1-  0.4+
020201 704  0.0   0.1+    020205 118  0.2-  0.1-    020225 704  0.4+  0.8+
020201 704  0.1+  0.9+    020205 118  0.2-  0.2-    020225 704  0.1-  0.5+
020201 704  0.6+  0.4+    020205 118  0.1-  0.1-    020225 704  0.3-  0.5+
020201 151  0.4-  2.0+    020214 649  0.1-  0.5-    020303 642  0.2-  0.6-
020201 151  0.8-  0.9+    020214 649  0.0   0.2-    020303 642  0.2-  0.0
020201 151  1.2-  0.4-    020214 649  0.0   0.4-    020303 642  0.5-  0.8-
020201 151  0.7+  0.2-    020214 696  0.1+  0.4-    020303 198  0.5+  0.0
020201 151  0.9+  1.5+    020214 696  0.2-  0.4-    020304 198  0.1-  0.1+
020201 151  0.7-  0.2-    020214 540  0.1-  0.4-    020304 198  0.1-  0.1+
020201 046  0.1+  0.4-    020214 540  0.1+  0.5-    020304 198  0.4-  0.1+
020201 046  0.4+  0.4-    020214 540  0.1-  0.2-    020304 726 (0.8+  2.6+)
020201 046  0.0   0.1-    020214 540  0.2+  0.2-    020304 726  0.4+  0.7+
020201 046  0.2+  0.1-    020214 540  0.2-  0.3-    020304 726  0.7-  1.4-
020201 046  0.0   0.0     020215 118  0.1+  0.0     020304 726  0.1+  0.3-
020202 118  0.1+  0.0     020215 118  0.1+  0.2-    020304 726  0.7-  1.4+
020202 118  0.1+  0.0     020215 118  0.2-  0.0     020304 726  1.2+  2.0+
020202 118  0.1+  0.3-    020216 642  0.9+  0.3-    020312 649  0.3-  0.2-
020202 198  0.2+  0.1-    020216 642  0.6-  0.1-    020312 649  0.2-  0.0
020202 198  0.1+  0.3-    020216 642  0.2+  0.3+    020312 649  0.2-  0.0
020202 198  0.0   0.3-    020216 642  0.2+  0.7-    020313 198  0.1+  0.1-
020202 636  0.2+  0.1+    020221 649  0.0   0.1-    020313 198  0.1-  0.2-
020202 636  0.3+  0.0     020221 649  0.1-  0.1-    020313 198  0.2-  0.3-

Ephemeris:
2002 CE                  a,e,i = 2.08, 0.51, 44                  q = 1.0220
Date    TT    R. A. (2000) Decl.     Delta      r     Elong.  Phase     V
2002 03 17    10 34.02   +69 55.2    1.437    2.015   110.6    27.5    18.1
2002 03 27    10 09.78   +65 11.6    1.536    2.076   108.2    27.2    18.3
2002 04 06    09 59.22   +60 15.3    1.650    2.136   104.7    26.9    18.5
2002 04 16    09 56.69   +55 24.0    1.779    2.194   100.4    26.7    18.8
2002 04 26    09 59.02   +50 46.4    1.919    2.250    95.5    26.4    19.0
2002 05 06    10 04.37   +46 26.1    2.069    2.305    90.2    26.0    19.2
2002 05 16    10 11.70   +42 23.4    2.226    2.357    84.6    25.3    19.4
2002 05 26    10 20.35   +38 37.4    2.388    2.407    78.9    24.4    19.5
2002 06 05    10 29.89   +35 06.8    2.551    2.456    73.1    23.3    19.7
2002 06 15    10 40.05   +31 49.6    2.713    2.503    67.3    22.0    19.8
2002 06 25    10 50.65   +28 44.3    2.872    2.548    61.5    20.5    19.9
2002 07 05    11 01.54   +25 49.5    3.026    2.591    55.6    18.9    20.0
2002 07 15    11 12.64   +23 03.6    3.173    2.633    49.7    17.1    20.1
2002 07 25    11 23.89   +20 25.7    3.311    2.673    43.8    15.3    20.2
2002 08 04    11 35.23   +17 54.8    3.438    2.711    38.0    13.3    20.2
2002 08 14    11 46.63   +15 30.2    3.552    2.747    32.1    11.3    20.2

Brian G. Marsden             (C) Copyright 2002 MPC           M.P.E.C. 2002-F59

Read MPEC 2002-F58 Read MPEC 2002-F60


Our Web policy. Index to the CBAT/MPC/ICQ pages.


Valid HTML 4.01!